CAPE
1 2 2 2 0 0 0 0 0 0 0 0 0 0 0 0 0 0 0 0 0 0 0 0 0 0 0 0 0 0 0 0 0 0 0 0 0 0 0 0 0 0 0 0 0
1 2 1 1 1 0 0 0 0 0 0 0 0 0 0 0 0 0 0 0 0 0 0 0 0 0 0 0 0 0 0 0 0 0 0 0 0 0 0 0 0 0 0 0 0
1 1 1 1 1 0 0 0 0 0 0 0 0 0 0 0 0 0 0 0 0 0 0 0 0 0 0 0 0 0 0 0 0 0 0 0 0 0 0 0 0 0 0 0 0
2 1 3 1 1 0 0 0 0 0 0 0 0 0 0 0 0 0 0 0 0 0 0 0 0 0 0 0 0 0 0 0 0 0 0 0 0 0 0 0 0 0 0 0 0
2 1 1 0 0 0 0 0 0 0 0 0 0 0 0 0 0 0 0 0 0 0 0 0 0 0 0 0 0 0 0 0 0 0 0 0 0 0 0 0 0 0 0 0 0
2 2 1 0 0 0 0 0 0 0 0 0 0 0 0 0 0 0 0 0 0 0 0 0 0 0 0 0 0 0 0 0 0 0 0 0 0 0 0 0 0 0 0 0 0
3 2 0 0 0 0 0 0 0 0 0 0 0 0 0 0 0 0 0 0 0 0 0 0 0 0 0 0 0 0 0 0 0 0 0 0 0 0 0 0 0 0 0 0 0
1 0 0 0 0 0 0 0 0 0 0 0 0 0 0 0 0 0 0 0 0 0 0 0 0 0 0 0 0 0 0 0 0 0 0 0 0 0 0 0 0 0 0 0 0
0 0 0 0 0 0 0 0 0 0 0 0 0 0 0 0 0 0 0 0 0 0 0 0 0 0 0 0 0 0 0 0 0 0 0 0 0 0 0 0 0 0 0 0 0
0 0 0 0 0 0 0 0 0 0 0 0 0 0 0 0 0 0 0 0 0 0 0 0 0 0 0 0 0 0 0 0 0 0 0 0 0 0 0 0 0 0 0 0 0
0 0 0 0 0 0 0 0 0 0 0 0 0 0 0 0 0 0 0 0 0 0 0 0 0 0 0 0 0 0 0 0 0 0 0 0 0 0 0 0 0 0 0 0 0
0 0 0 0 0 0 0 0 0 0 0 0 0 0 0 0 0 0 0 0 0 0 0 0 0 0 0 0 0 0 0 0 1 0 0 0 0 0 0 0 0 0 0 0 0
0 0 0 0 0 0 0 0 0 0 0 0 0 0 0 0 0 0 0 0 0 0 0 0 0 0 0 0 0 2 16 19 1 0 0 0 0 0 0 0 0 0 0 0 0
0 0 0 0 0 0 0 0 0 0 0 0 0 0 0 0 0 0 0 0 0 0 0 0 0 0 0 0 3 5 9 1 0 1 0 0 0 0 0 0 0 0 0 0 0
0 0 0 0 0 0 0 0 0 0 0 0 0 0 0 0 0 0 0 0 0 0 0 0 0 0 0 0 0 0 1 7 5 0 0 0 0 0 0 0 0 0 0 0 0
0 0 0 0 0 0 0 0 0 0 0 0 0 0 0 0 0 0 0 0 0 0 0 0 0 0 0 3 1 1 7 0 0 0 0 1 0 0 0 0 3 0 0 0 0
0 0 0 0 0 0 0 0 0 0 0 0 0 0 0 0 0 0 0 0 0 0 0 0 0 0 0 14 25 13 12 4 0 3 3 1 0 0 0 0 0 0 0 0 0
0 0 0 0 0 0 0 0 0 0 0 0 0 0 0 0 0 0 0 0 0 0 0 0 0 0 1 2 2 0 5 6 7 7 19 2 0 3 0 0 0 0 0 0 0
0 0 0 0 0 0 0 0 0 0 0 0 0 0 0 0 0 0 0 0 0 0 0 0 0 0 0 0 0 11 6 7 6 1 3 0 2 1 0 2 1 0 1 0 0
0 0 0 0 0 0 0 0 0 0 0 0 0 0 0 0 0 0 0 0 0 0 4 1 0 0 0 0 3 3 6 19 12 2 3 14 18 28 1 24 12 35 41 10 0
0 0 0 0 0 0 0 0 0 0 0 0 0 0 0 0 0 0 0 0 0 1 12 2 5 0 1 3 8 1 6 1 13 9 17 12 24 0 0 1 19 24 40 47 8
0 0 0 0 0 0 0 0 0 0 0 0 0 0 0 0 0 0 0 0 0 0 1 10 15 4 0 0 0 0 3 9 12 6 13 14 1 0 0 0 5 28 24 18 3
0 0 0 0 0 0 0 0 0 0 0 0 0 0 0 0 0 0 0 0 0 0 0 8 13 2 1 7 1 4 10 11 16 14 2 12 1 10 12 6 13 26 35 26 8
0 0 0 0 0 0 0 0 0 0 0 0 0 0 0 0 0 0 0 0 0 0 0 5 2 1 1 7 7 6 16 10 9 1 8 13 7 18 18 14 11 12 25 8 2
0 0 0 0 0 0 0 0 0 0 0 0 0 0 0 1 1 0 0 0 0 0 4 28 0 4 4 13 9 10 10 8 8 4 11 0 8 1 10 8 15 10 5 3 4
0 0 0 0 0 0 0 0 0 0 0 0 0 0 0 1 1 0 0 0 0 0 14 3 0 3 0 5 3 7 0 1 5 8 1 3 0 0 0 4 4 4 4 5 1
0 0 0 0 0 0 0 0 0 2 0 2 9 13 5 0 0 0 0 0 0 0 2 2 0 0 0 8 10 2 0 2 8 10 7 8 5 2 1 1 5 3 8 10 3
CIN
0 -1 0 0 0 0 0 0 0 0 0 0 0 0 0 0 0 0 0 0 0 0 0 0 0 0 0 0 0 0 0 0 0 0 0 0 0 0 0 0 0 0 0 0 0
0 0 0 0 0 0 0 0 0 0 0 0 0 0 0 0 0 0 0 0 0 0 0 0 0 0 0 0 0 0 0 0 0 0 0 0 0 0 0 0 0 0 0 0 0
0 0 0 0 0 0 0 0 0 0 0 0 0 0 0 0 0 0 0 0 0 0 0 0 0 0 0 0 0 0 0 0 0 0 0 0 0 0 0 0 0 0 0 0 0
0 0 0 0 0 0 0 0 0 0 0 0 0 0 0 0 0 0 0 0 0 0 0 0 0 0 0 0 0 0 0 0 0 0 0 0 0 0 0 0 0 0 0 0 0
0 0 0 0 0 0 0 0 0 0 0 0 0 0 0 0 0 0 0 0 0 0 0 0 0 0 0 0 0 0 0 0 0 0 0 0 0 0 0 0 0 0 0 0 0
0 0 0 0 0 0 0 0 0 0 0 0 0 0 0 0 0 0 0 0 0 0 0 0 0 0 0 0 0 0 0 0 0 0 0 0 0 0 0 0 0 0 0 0 0
0 0 0 0 0 0 0 0 0 0 0 0 0 0 0 0 0 0 0 0 0 0 0 0 0 0 0 0 0 0 0 0 0 0 0 0 0 0 0 0 0 0 0 0 0
0 0 0 0 0 0 0 0 0 0 0 0 0 0 0 0 0 0 0 0 0 0 0 0 0 0 0 0 0 0 0 0 0 0 0 0 0 0 0 0 0 0 0 0 0
0 0 0 0 0 0 0 0 0 0 0 0 0 0 0 0 0 0 0 0 0 0 0 0 0 0 0 0 0 0 0 0 0 0 0 0 0 0 0 0 0 0 0 0 0
0 0 0 0 0 0 0 0 0 0 0 0 0 0 0 0 0 0 0 0 0 0 0 0 0 0 0 0 0 0 0 0 0 0 0 0 0 0 0 0 0 0 0 0 0
0 0 0 0 0 0 0 0 0 0 0 0 0 0 0 0 0 0 0 0 0 0 0 0 0 0 0 0 0 0 0 0 0 0 0 0 0 0 0 0 0 0 0 0 0
0 0 0 0 0 0 0 0 0 0 0 0 0 0 0 0 0 0 0 0 0 0 0 0 0 0 0 0 0 0 -1 -2 -2 0 0 0 0 0 0 0 0 0 0 0 0
0 0 0 0 0 0 0 0 0 0 0 0 0 0 0 0 0 0 0 0 0 0 0 0 0 0 0 0 0 -2 -3 -4 -2 0 0 0 0 0 0 0 0 0 0 0 0
0 0 0 0 0 0 0 0 0 0 0 0 0 0 0 0 0 0 0 0 0 0 0 0 0 0 0 0 -1 -4 -4 -3 0 -4 0 0 0 0 0 0 0 0 0 0 0
0 0 0 0 0 0 0 0 0 0 0 0 0 0 0 0 0 0 0 0 0 0 0 0 0 0 0 0 0 0 -2 -2 -2 0 0 0 0 0 -9 0 0 0 0 0 0
0 0 0 0 0 0 0 0 0 0 0 0 0 0 0 0 0 0 0 0 0 0 0 0 0 0 0 -3 -2 0 -3 0 0 0 0 -1 0 0 0 -3 -3 0 0 0 0
0 0 0 0 0 0 0 0 0 0 0 0 0 0 0 0 0 0 0 0 0 0 0 0 0 0 0 -1 -5 -2 -2 -1 0 -2 -4 -3 0 0 0 0 0 0 0 0 0
0 0 0 0 0 0 0 0 0 0 0 0 0 0 0 0 0 0 0 0 0 0 0 0 0 0 -1 -3 -3 -1 -3 -2 -2 -5 -7 -10 -1 -3 0 0 0 0 0 0 0
0 0 0 0 0 0 0 0 0 0 0 0 0 0 0 0 0 0 0 0 0 0 0 0 0 0 0 0 -2 -4 -2 -3 -4 -1 -2 -1 -4 -2 0 -3 -1 0 -2 0 0
0 0 0 0 0 0 0 0 0 0 0 0 0 0 0 0 0 0 0 0 0 0 -1 -1 0 0 0 -1 -4 -2 -5 -2 -1 0 -2 -4 -8 -8 -14 -3 -4 -4 -3 -6 -1
0 0 0 0 0 0 0 0 0 0 0 0 0 0 0 0 0 0 0 0 0 -1 -1 -2 -1 0 -3 -3 -3 -4 -3 -6 -2 -2 -1 -3 -5 0 0 -31 -3 -4 -3 -2 -2
0 0 0 0 0 0 0 0 0 0 0 0 0 0 0 0 0 0 0 0 0 0 -1 -2 -1 -1 0 0 0 0 -4 -4 -1 -2 -3 -2 0 0 0 0 -3 -3 -3 -4 -4
0 0 0 0 0 0 0 0 0 0 0 0 0 0 0 0 0 0 0 0 0 0 0 -3 0 0 -3 -3 0 -1 -2 -2 -2 -2 0 0 -3 -10 -8 -8 -6 -7 -4 -2 -3
0 0 0 0 0 0 0 0 0 0 0 0 0 0 0 0 0 0 0 0 0 0 0 -1 -2 0 0 -3 -3 -1 -1 -2 -1 -5 -3 -2 -5 -5 -6 -14 -10 -4 -2 -2 -2
0 0 0 0 0 0 0 0 0 0 0 0 0 0 0 -1 -2 0 0 0 0 0 0 -1 -1 -1 0 0 -1 -1 -2 -2 -2 -3 -1 -1 -2 -3 -3 -5 -7 -2 -1 -2 -1
0 0 0 0 0 0 0 0 0 0 0 0 0 0 0 -1 -2 -1 0 0 0 0 -1 -4 0 -1 0 -2 -7 -5 0 -3 -2 -1 -6 -2 -1 -5 -3 -2 -2 -1 -2 -2 -1
0 0 0 0 0 0 0 0 0 0 0 -1 -1 -1 -2 -2 0 0 0 0 0 0 -4 0 0 -2 -1 -2 -3 -1 0 -3 -2 -2 -2 0 -2 -7 -3 -1 -1 -1 0 0 -2
Wind_Speed
21 17 15 12 9 7 6 6 6 7 8 8 10 14 23 24 18 16 20 18 19 21 21 18 17 16 15 17 17 19 27 31 31 28 28 25 30 25 25 33 33 30 32 32 28
19 17 17 17 15 11 8 6 11 13 17 20 22 23 22 21 18 21 20 19 20 21 20 20 19 18 18 18 19 22 29 31 27 27 29 31 33 33 34 31 33 35 31 27 28
22 21 20 21 20 20 21 23 24 23 23 23 23 22 19 18 18 22 20 20 22 23 21 20 20 20 21 20 21 22 29 25 26 27 29 34 35 34 35 37 32 32 34 33 32
24 24 23 23 22 24 25 25 25 24 24 24 23 22 19 16 22 20 20 21 22 21 19 21 21 21 23 24 23 27 24 26 26 30 32 35 36 38 38 38 34 32 35 36 35
28 26 24 24 25 25 25 25 24 23 23 23 23 21 19 22 22 20 19 20 21 21 22 22 23 23 24 24 25 27 25 28 30 34 37 36 39 42 43 39 37 35 35 36 37
31 29 27 26 26 25 24 23 23 21 21 22 22 21 20 25 20 20 19 20 21 22 22 23 23 23 23 25 27 24 29 31 32 32 32 37 37 36 39 38 40 37 36 36 38
30 30 27 27 24 22 22 21 20 19 19 20 21 22 26 24 20 20 19 19 19 20 22 21 23 23 24 25 23 27 32 32 27 25 35 33 42 40 35 33 37 41 38 37 38
31 28 24 25 22 21 21 21 19 19 19 19 19 21 25 21 19 19 18 17 17 17 19 21 21 23 22 24 25 29 30 31 24 31 29 28 44 36 26 31 37 40 41 40 38
32 28 29 23 21 21 22 22 21 20 19 18 19 19 24 19 21 21 18 17 16 16 17 17 18 22 21 25 31 23 33 37 37 27 34 31 40 33 27 33 39 38 39 39 38
33 29 30 22 21 22 21 20 20 19 18 18 19 18 23 23 21 19 18 14 15 16 15 16 18 22 21 24 35 37 41 40 40 33 35 39 44 41 38 36 36 36 37 38 38
34 29 31 23 21 22 21 18 17 19 21 20 21 22 22 22 19 24 20 16 13 15 18 19 21 22 28 29 31 35 37 39 38 36 37 39 44 44 41 38 37 35 34 36 36
35 29 26 20 20 20 20 22 21 18 19 19 19 19 19 20 19 22 19 20 18 17 18 16 19 25 27 26 27 31 35 38 37 35 37 43 47 45 44 44 44 42 38 30 32
35 28 21 18 18 19 23 23 20 16 16 16 18 19 21 20 20 21 22 20 19 18 18 20 21 27 24 23 25 24 33 38 39 38 39 40 42 33 21 24 28 29 27 26 23
32 27 23 18 18 20 20 20 18 14 15 17 17 18 19 21 17 18 21 20 20 21 21 20 23 23 21 19 19 29 33 37 36 36 34 32 36 36 34 31 27 25 24 21 16
32 25 21 20 19 20 20 19 16 15 22 19 18 18 20 22 19 18 19 19 21 21 17 18 25 24 22 16 15 31 31 33 34 37 39 38 37 32 23 26 16 19 20 18 20
31 30 20 18 17 20 18 17 15 17 21 19 18 22 24 22 17 17 19 19 17 18 17 18 19 18 18 13 15 25 29 33 34 35 36 34 30 28 20 22 20 27 21 17 18
31 20 19 18 21 18 16 16 18 20 19 19 21 24 25 23 21 22 24 26 25 28 27 24 23 18 13 11 6 6 28 31 26 17 30 21 30 30 28 30 26 23 21 21 17
31 17 18 20 20 17 16 18 20 20 21 21 22 24 21 26 24 24 23 27 20 23 26 29 27 23 16 16 23 23 19 22 28 29 33 32 29 22 22 24 23 24 24 21 18
29 18 18 23 18 15 17 20 22 22 21 23 25 22 23 23 27 26 26 23 21 21 27 27 21 22 13 14 12 18 12 19 24 18 30 22 20 22 17 17 19 21 16 14 17
25 19 22 25 17 16 19 21 20 20 21 21 23 22 26 28 27 28 26 21 23 19 21 22 26 22 19 18 11 12 22 17 15 20 18 21 30 27 15 17 19 18 17 16 19
23 20 24 25 17 18 21 22 21 21 21 21 22 23 25 28 26 27 22 22 19 20 20 20 17 18 19 17 14 21 11 16 22 18 18 32 25 19 21 23 21 22 19 20 26
24 21 26 23 19 22 23 23 22 20 19 20 20 20 23 28 26 24 21 20 20 21 25 21 19 21 17 10 8 13 9 7 16 15 10 13 23 35 25 20 18 21 24 30 35
28 22 23 21 22 25 23 22 20 22 22 21 20 22 25 26 27 22 24 21 18 20 21 23 19 27 22 16 16 21 15 12 12 13 18 20 14 11 20 19 29 37 33 35 38
26 25 23 23 23 24 26 22 23 21 22 19 21 25 25 25 20 23 24 23 18 19 20 15 15 15 16 17 35 38 13 12 14 16 21 27 33 35 37 37 41 39 34 38 39
27 24 23 23 23 25 23 23 23 24 20 21 23 22 29 29 27 24 23 24 23 21 18 14 21 15 12 13 25 36 31 21 18 22 24 39 36 45 40 34 36 32 38 39 40
27 25 22 23 22 22 23 22 23 23 23 25 22 27 28 27 25 29 27 26 26 20 19 17 22 20 17 11 21 35 35 19 15 17 21 24 36 38 15 25 34 40 39 39 43
25 21 23 23 23 24 23 24 23 27 23 23 22 30 30 27 27 26 23 23 20 20 20 17 19 22 20 28 38 35 28 19 16 21 27 20 41 42 44 43 43 42 40 46 46
Wind_Direction
324 317 308 299 283 258 226 196 153 143 122 110 82 56 358 339 15 31 3 358 347 335 333 340 342 338 332 319 312 304 287 282 280 281 280 287 284 287 291 280 279 279 277 284 290
322 316 313 310 301 282 262 225 99 80 56 38 21 9 7 5 35 16 2 359 353 343 342 335 333 330 322 317 312 297 287 285 291 290 284 286 285 284 285 282 279 277 278 282 286
326 321 319 322 317 320 328 342 24 30 25 20 17 15 17 27 34 13 10 360 347 339 338 335 330 324 315 313 308 301 289 293 291 290 291 288 285 285 282 279 282 277 277 278 280
329 325 325 326 328 339 354 8 14 20 20 19 20 23 24 34 1 14 13 6 358 353 349 340 329 319 312 306 308 297 296 294 293 292 290 286 286 281 280 280 284 283 282 277 275
333 329 326 331 347 359 5 12 22 26 27 28 27 31 39 32 24 26 24 16 11 5 354 344 337 325 312 312 310 299 298 296 295 293 289 289 283 280 278 281 281 283 281 277 274
336 335 336 351 0 6 22 26 27 34 41 42 42 47 41 25 37 33 30 22 15 7 360 354 342 335 323 316 308 312 305 300 297 294 294 289 288 284 281 280 278 280 280 278 275
333 337 339 10 28 37 35 35 40 52 58 55 52 52 36 32 43 37 35 26 21 11 0 358 348 339 330 320 320 312 303 303 301 299 296 294 285 282 284 283 278 277 277 279 276
336 335 329 32 40 45 40 41 52 63 62 61 60 55 39 49 47 41 35 31 28 18 6 356 352 339 333 327 318 310 306 300 306 304 303 297 283 293 290 288 284 280 277 276 277
335 332 349 41 44 43 42 46 58 61 63 64 57 49 36 51 36 35 35 28 24 19 10 3 357 341 335 324 314 310 304 302 301 304 298 291 287 294 298 292 288 284 280 276 276
336 332 4 42 44 42 47 58 59 61 60 61 56 46 38 28 32 33 36 36 24 11 0 1 352 337 332 326 310 306 304 302 299 304 298 290 285 289 291 291 288 285 282 278 274
334 330 356 38 45 44 49 54 53 47 42 42 40 40 36 32 41 27 31 30 25 11 358 353 341 331 326 322 318 313 309 303 301 301 295 291 287 284 286 286 286 284 283 279 275
333 326 12 47 48 49 49 41 39 40 42 46 44 43 41 33 23 25 31 25 17 4 356 349 334 332 330 324 318 313 310 303 300 297 293 288 279 275 273 269 265 270 275 283 281
330 322 7 49 51 49 35 32 33 48 40 42 39 35 31 28 27 23 25 20 12 6 359 342 333 329 325 320 317 313 305 300 294 288 277 279 277 278 300 301 296 292 291 288 284
325 319 29 42 47 38 34 29 31 54 34 31 29 32 31 29 34 32 26 23 15 5 356 353 356 344 336 325 323 312 301 285 274 279 289 291 283 267 288 297 303 302 296 296 285
323 313 35 43 36 31 26 25 46 45 11 22 25 33 25 25 22 32 25 24 9 3 7 358 352 349 342 335 331 255 290 273 269 267 270 271 273 286 309 309 329 331 320 305 296
319 331 31 39 40 31 30 42 43 25 11 17 18 10 8 15 20 18 16 16 7 13 12 0 355 356 1 12 359 308 270 270 255 257 263 272 280 292 311 320 317 314 318 321 316
314 29 36 37 22 25 38 35 18 13 17 15 7 2 0 7 9 11 6 9 12 7 7 6 8 16 19 22 59 36 273 289 297 311 283 309 293 291 308 311 313 313 315 312 310
311 30 38 33 28 38 35 21 10 12 7 6 1 356 4 5 6 6 5 4 18 12 4 8 8 9 22 355 256 247 236 311 302 298 287 295 298 326 323 322 324 316 302 306 312
6 30 32 17 30 40 22 11 9 8 7 359 356 2 2 4 358 1 1 5 13 15 8 3 10 353 329 355 348 340 347 325 317 314 300 310 315 320 333 333 341 334 331 314 303
15 24 18 14 34 31 15 8 9 10 5 2 358 2 356 354 358 358 0 12 8 14 14 6 348 6 7 2 341 318 321 331 330 327 322 319 310 312 329 335 338 336 331 318 304
13 16 14 16 35 21 10 7 6 8 4 3 355 351 353 353 355 355 359 1 9 9 5 356 358 359 349 348 348 322 333 326 316 316 322 313 323 338 317 321 324 321 321 316 299
12 11 9 16 15 12 5 2 3 5 6 1 358 356 351 350 350 354 354 0 6 359 355 6 358 343 335 308 321 320 313 308 314 324 301 280 253 305 314 322 323 317 310 303 291
2 8 14 17 7 2 4 3 4 359 1 1 358 357 351 350 351 352 350 2 1 355 2 1 0 351 357 4 350 327 333 318 294 271 257 255 257 309 317 319 304 301 301 296 286
5 360 8 15 10 3 360 2 358 0 355 0 352 350 351 347 346 346 343 350 1 349 343 347 341 328 324 324 308 275 258 284 298 292 259 242 253 250 255 266 293 294 300 294 289
6 3 5 359 1 358 360 357 357 355 360 358 352 352 347 346 343 337 344 344 338 339 355 1 343 334 310 296 252 257 255 255 258 258 250 255 253 264 262 256 304 308 302 297 289
359 1 3 354 357 355 356 356 352 353 349 347 342 345 342 337 334 329 332 337 342 348 356 354 343 341 333 297 245 262 261 252 270 269 253 247 251 259 260 321 307 304 301 301 286
359 5 359 357 356 352 352 351 350 346 348 348 340 337 336 335 338 333 325 321 318 322 333 342 347 348 340 337 287 289 325 337 330 327 315 312 290 294 296 302 299 302 300 290 275